WJA225 CYYC-CYMM

Flight info

Callsign WJA225
Flight time 1h 8m
Altitude 36000
Route STAMP2/35L AVROM Q933 MAPUX DCT DAVEL/N0447F350 DCT LEXON LEXON5
Aircraft B738/M-SDE2E3FGHIRWXY/LB1

Departure

Time 2026-04-29 00:45
Airport Calgary International Airport (CYYC)

Arrival

Time 2026-04-29 01:53
Airport Fort McMurray International Airport (CYMM)
Time Latitude Longitude Altitude Speed Heading
2026-04-28 23:54 51.11991 -114.02869 3545 ft 0 kts 222°
2026-04-29 00:30 51.11994 -114.02865 3545 ft 3 kts 222°
2026-04-29 00:31 51.12014 -114.02838 3543 ft 4 kts 215°
2026-04-29 00:31 51.12037 -114.02816 3542 ft 4 kts 201°
2026-04-29 00:31 51.12054 -114.02808 3544 ft 4 kts 179°
2026-04-29 00:31 51.12071 -114.02817 3541 ft 1 kts 133°
2026-04-29 00:35 51.12069 -114.02814 3541 ft 1 kts 133°
2026-04-29 00:36 51.12054 -114.02785 3543 ft 5 kts 128°
2026-04-29 00:36 51.12022 -114.02730 3543 ft 8 kts 135°
2026-04-29 00:36 51.11977 -114.02654 3544 ft 11 kts 133°
2026-04-29 00:36 51.11923 -114.02560 3545 ft 12 kts 132°
2026-04-29 00:37 51.11867 -114.02466 3556 ft 12 kts 137°
2026-04-29 00:37 51.11780 -114.02417 3554 ft 16 kts 179°
2026-04-29 00:37 51.11655 -114.02417 3550 ft 20 kts 181°
2026-04-29 00:37 51.11504 -114.02415 3545 ft 23 kts 179°
2026-04-29 00:38 51.11340 -114.02417 3547 ft 24 kts 180°
2026-04-29 00:38 51.11165 -114.02417 3544 ft 26 kts 180°
2026-04-29 00:38 51.10980 -114.02418 3546 ft 27 kts 180°
2026-04-29 00:38 51.10786 -114.02421 3542 ft 28 kts 187°
2026-04-29 00:39 51.10604 -114.02501 3543 ft 27 kts 196°
2026-04-29 00:39 51.10431 -114.02576 3547 ft 25 kts 174°
2026-04-29 00:39 51.10262 -114.02571 3542 ft 25 kts 177°
2026-04-29 00:39 51.10091 -114.02578 3542 ft 24 kts 180°
2026-04-29 00:40 51.09929 -114.02577 3542 ft 23 kts 180°
2026-04-29 00:40 51.09853 -114.02575 3542 ft 8 kts 166°
2026-04-29 00:40 51.09817 -114.02504 3542 ft 9 kts 118°
2026-04-29 00:40 51.09800 -114.02450 3544 ft 0 kts 117°
2026-04-29 00:42 51.09797 -114.02442 3538 ft 3 kts 117°
2026-04-29 00:42 51.09782 -114.02392 3541 ft 7 kts 116°
2026-04-29 00:43 51.09752 -114.02298 3547 ft 11 kts 117°
2026-04-29 00:43 51.09714 -114.02170 3544 ft 5 kts 95°
2026-04-29 00:43 51.09737 -114.02132 3547 ft 5 kts 15°
2026-04-29 00:43 51.09776 -114.02135 3549 ft 7 kts 359°
2026-04-29 00:44 51.09932 -114.02135 3550 ft 53 kts 359°
2026-04-29 00:44 51.10531 -114.02134 3556 ft 118 kts 359°
2026-04-29 00:44 51.11529 -114.02110 3652 ft 161 kts
2026-04-29 00:44 51.12710 -114.02023 4071 ft 178 kts
2026-04-29 00:45 51.13942 -114.01958 4926 ft 177 kts
2026-04-29 00:45 51.15214 -114.02007 5587 ft 188 kts 359°
2026-04-29 00:45 51.16523 -114.01963 6370 ft 188 kts
2026-04-29 00:45 51.17798 -114.01706 7108 ft 193 kts 12°
2026-04-29 00:46 51.19179 -114.01122 7321 ft 218 kts 14°
2026-04-29 00:46 51.20716 -114.00458 7538 ft 240 kts 13°
2026-04-29 00:46 51.22381 -113.99752 7941 ft 253 kts 13°
2026-04-29 00:46 51.24104 -113.99005 8610 ft 260 kts 13°
2026-04-29 00:47 51.25921 -113.98217 9125 ft 277 kts 13°
2026-04-29 00:47 51.27810 -113.97397 9918 ft 285 kts 13°
2026-04-29 00:47 51.29748 -113.96556 10557 ft 297 kts 13°
2026-04-29 00:47 51.31802 -113.95670 10764 ft 323 kts 12°
2026-04-29 00:48 51.34019 -113.94714 11294 ft 335 kts 12°
2026-04-29 00:48 51.36283 -113.93733 12172 ft 336 kts 12°
2026-04-29 00:48 51.38540 -113.92751 13120 ft 336 kts 12°
2026-04-29 00:48 51.40801 -113.91767 14010 ft 338 kts 12°
2026-04-29 00:49 51.43083 -113.90776 14722 ft 342 kts 12°
2026-04-29 00:49 51.45404 -113.89766 15400 ft 347 kts 12°
2026-04-29 00:49 51.47755 -113.88744 16106 ft 351 kts 12°
2026-04-29 00:49 51.50149 -113.87699 16346 ft 369 kts 13°
2026-04-29 00:50 51.52767 -113.86531 15408 ft 414 kts 13°
2026-04-29 00:50 51.55535 -113.85325 16296 ft 403 kts 13°
2026-04-29 00:50 51.58161 -113.84182 17739 ft 381 kts 13°
2026-04-29 00:50 51.60646 -113.83097 18978 ft 369 kts 13°
2026-04-29 00:51 51.61233 -113.82841 19207 ft 368 kts 13°
2026-04-29 00:51 51.62392 -113.82336 19570 ft 367 kts 13°
2026-04-29 00:51 51.64876 -113.81258 20124 ft 372 kts 13°
2026-04-29 00:52 51.67391 -113.80166 20646 ft 377 kts 13°
2026-04-29 00:52 51.69937 -113.79057 21257 ft 379 kts 13°
2026-04-29 00:52 51.72491 -113.77939 21856 ft 382 kts 13°
2026-04-29 00:52 51.75070 -113.76807 22419 ft 385 kts 13°
2026-04-29 00:53 51.77664 -113.75667 22961 ft 388 kts 13°
2026-04-29 00:53 51.80286 -113.74512 23508 ft 391 kts 13°
2026-04-29 00:53 51.82923 -113.73348 23992 ft 394 kts 13°
2026-04-29 00:53 51.85579 -113.72174 24447 ft 397 kts 13°
2026-04-29 00:54 51.88251 -113.70991 24884 ft 399 kts 12°
2026-04-29 00:54 51.90933 -113.69802 25308 ft 401 kts 12°
2026-04-29 00:54 51.93635 -113.68603 25721 ft 404 kts 13°
2026-04-29 00:54 51.96353 -113.67395 26137 ft 406 kts 13°
2026-04-29 00:55 51.99052 -113.66195 26534 ft 408 kts 13°
2026-04-29 00:55 52.01803 -113.64970 26931 ft 411 kts 13°
2026-04-29 00:55 52.04570 -113.63736 27312 ft 413 kts 13°
2026-04-29 00:55 52.07348 -113.62495 27690 ft 415 kts 13°
2026-04-29 00:56 52.10146 -113.61244 28060 ft 418 kts 13°
2026-04-29 00:56 52.12959 -113.59985 28426 ft 420 kts 13°
2026-04-29 00:56 52.15787 -113.58717 28779 ft 422 kts 13°
2026-04-29 00:56 52.18628 -113.57442 29123 ft 425 kts 13°
2026-04-29 00:57 52.21486 -113.56157 29466 ft 427 kts 13°
2026-04-29 00:57 52.24366 -113.54861 29797 ft 429 kts 13°
2026-04-29 00:57 52.27246 -113.53563 30123 ft 431 kts 13°
2026-04-29 00:57 52.30147 -113.52254 30393 ft 434 kts 13°
2026-04-29 00:58 52.33054 -113.50940 30721 ft 434 kts 13°
2026-04-29 00:58 52.35925 -113.49639 31137 ft 432 kts 13°
2026-04-29 00:58 52.38813 -113.48329 31539 ft 430 kts 13°
2026-04-29 00:58 52.41696 -113.47020 31898 ft 429 kts 13°
2026-04-29 00:59 52.44578 -113.45710 32225 ft 429 kts 13°
2026-04-29 00:59 52.47462 -113.44399 32577 ft 429 kts 13°
2026-04-29 00:59 52.50328 -113.43093 32945 ft 427 kts 13°
2026-04-29 00:59 52.53188 -113.41787 33306 ft 426 kts 13°
2026-04-29 01:00 52.56049 -113.40480 33644 ft 426 kts 13°
2026-04-29 01:00 52.58908 -113.39173 33961 ft 426 kts 13°
2026-04-29 01:00 52.61754 -113.37870 34286 ft 425 kts 13°
2026-04-29 01:00 52.64605 -113.36562 34522 ft 425 kts 13°
2026-04-29 01:01 52.67462 -113.35250 34726 ft 427 kts 13°
2026-04-29 01:01 52.70322 -113.33935 34947 ft 427 kts 13°
2026-04-29 01:01 52.73189 -113.32614 35180 ft 427 kts 13°
2026-04-29 01:01 52.76024 -113.31307 35399 ft 428 kts 13°
2026-04-29 01:02 52.78893 -113.29982 35617 ft 428 kts 13°
2026-04-29 01:02 52.81760 -113.28656 35841 ft 428 kts 13°
2026-04-29 01:02 52.84636 -113.27324 36057 ft 429 kts 13°
2026-04-29 01:02 52.87514 -113.25990 36196 ft 431 kts 13°
2026-04-29 01:03 52.90420 -113.24642 36194 ft 435 kts 13°
2026-04-29 01:03 52.96249 -113.21929 36204 ft 434 kts 13°
2026-04-29 01:04 53.02010 -113.19237 36198 ft 427 kts 13°
2026-04-29 01:04 53.07733 -113.16559 36196 ft 426 kts 13°
2026-04-29 01:05 53.13446 -113.13879 36193 ft 426 kts 13°
2026-04-29 01:05 53.19124 -113.11208 36187 ft 427 kts 13°
2026-04-29 01:06 53.24849 -113.08507 36188 ft 428 kts 13°
2026-04-29 01:06 53.30586 -113.05793 36189 ft 429 kts 14°
2026-04-29 01:07 53.36333 -113.03066 36197 ft 430 kts 14°
2026-04-29 01:07 53.42106 -113.00320 36199 ft 431 kts 14°
2026-04-29 01:08 53.47881 -112.97564 36199 ft 432 kts 14°
2026-04-29 01:08 53.53663 -112.94797 36195 ft 432 kts 14°
2026-04-29 01:09 53.59453 -112.92018 36194 ft 433 kts 14°
2026-04-29 01:09 53.65250 -112.89229 36195 ft 433 kts 14°
2026-04-29 01:10 53.71036 -112.86436 36189 ft 432 kts 14°
2026-04-29 01:10 53.76817 -112.83638 36186 ft 432 kts 14°
2026-04-29 01:11 53.82557 -112.80851 36188 ft 431 kts 14°
2026-04-29 01:11 53.88325 -112.78044 36189 ft 431 kts 14°
2026-04-29 01:12 53.94089 -112.75230 36186 ft 430 kts 14°
2026-04-29 01:12 53.99835 -112.72417 36183 ft 430 kts 14°
2026-04-29 01:13 54.05593 -112.69590 36184 ft 430 kts 14°
2026-04-29 01:13 54.11309 -112.66774 36171 ft 424 kts 14°
2026-04-29 01:14 54.16965 -112.63980 36174 ft 422 kts 14°
2026-04-29 01:14 54.22595 -112.61193 36179 ft 420 kts 14°
2026-04-29 01:15 54.28172 -112.58424 36179 ft 420 kts 14°
2026-04-29 01:15 54.33790 -112.55626 36179 ft 420 kts 14°
2026-04-29 01:16 54.39409 -112.52820 36181 ft 421 kts 14°
2026-04-29 01:16 54.45042 -112.49998 36179 ft 422 kts 14°
2026-04-29 01:17 54.50701 -112.47156 36177 ft 424 kts 14°
2026-04-29 01:17 54.56363 -112.44303 36179 ft 425 kts 14°
2026-04-29 01:18 54.61091 -112.41915 36173 ft 426 kts 14°
2026-04-29 01:18 54.70554 -112.37117 36172 ft 424 kts 14°
2026-04-29 01:19 54.73334 -112.35700 36146 ft 409 kts 14°
2026-04-29 01:19 54.75128 -112.34785 36149 ft 400 kts 14°
2026-04-29 01:19 54.77763 -112.33439 36041 ft 389 kts 14°
2026-04-29 01:19 54.80346 -112.32121 35763 ft 384 kts 14°
2026-04-29 01:20 54.82925 -112.30805 34926 ft 393 kts 14°
2026-04-29 01:20 54.85598 -112.29442 33972 ft 406 kts 14°
2026-04-29 01:20 54.88311 -112.28054 33364 ft 406 kts 14°
2026-04-29 01:20 54.91003 -112.26671 32976 ft 401 kts 15°
2026-04-29 01:21 54.93661 -112.25303 32589 ft 396 kts 15°
2026-04-29 01:21 54.96291 -112.23948 32148 ft 392 kts 15°
2026-04-29 01:21 54.98904 -112.22601 31686 ft 390 kts 15°
2026-04-29 01:21 55.01504 -112.21259 31246 ft 388 kts 15°
2026-04-29 01:22 55.04051 -112.19943 30827 ft 385 kts 15°
2026-04-29 01:22 55.06610 -112.18619 30422 ft 383 kts 15°
2026-04-29 01:22 55.09188 -112.17284 29971 ft 380 kts 15°
2026-04-29 01:22 55.11685 -112.15988 29487 ft 377 kts 15°
2026-04-29 01:23 55.14192 -112.14638 29017 ft 375 kts 17°
2026-04-29 01:23 55.16644 -112.13138 28572 ft 372 kts 18°
2026-04-29 01:23 55.19066 -112.11574 28113 ft 369 kts 18°
2026-04-29 01:23 55.21471 -112.09997 27661 ft 366 kts 18°
2026-04-29 01:24 55.23847 -112.08440 27218 ft 364 kts 18°
2026-04-29 01:24 55.26182 -112.06917 26742 ft 363 kts 18°
2026-04-29 01:24 55.28548 -112.05381 26295 ft 361 kts 18°
2026-04-29 01:24 55.30898 -112.03859 25882 ft 358 kts 18°
2026-04-29 01:25 55.33230 -112.02350 25483 ft 356 kts 18°
2026-04-29 01:25 55.35543 -112.00855 25089 ft 353 kts 18°
2026-04-29 01:25 55.37837 -111.99370 24708 ft 350 kts 18°
2026-04-29 01:25 55.40113 -111.97897 24329 ft 348 kts 18°
2026-04-29 01:26 55.42375 -111.96430 23956 ft 345 kts 18°
2026-04-29 01:26 55.44621 -111.94973 23549 ft 343 kts 18°
2026-04-29 01:26 55.46858 -111.93520 23115 ft 341 kts 18°
2026-04-29 01:26 55.49072 -111.92080 22739 ft 337 kts 18°
2026-04-29 01:27 55.51262 -111.90653 22356 ft 334 kts 18°
2026-04-29 01:27 55.53427 -111.89242 21993 ft 330 kts 18°
2026-04-29 01:27 55.55574 -111.87840 21610 ft 328 kts 18°
2026-04-29 01:27 55.57708 -111.86445 21247 ft 325 kts 18°
2026-04-29 01:28 55.59793 -111.85081 20893 ft 322 kts 18°
2026-04-29 01:28 55.61893 -111.83706 20531 ft 320 kts 18°
2026-04-29 01:28 55.63972 -111.82343 20178 ft 318 kts 18°
2026-04-29 01:28 55.66046 -111.80982 19826 ft 316 kts 18°
2026-04-29 01:29 55.68109 -111.79626 19476 ft 314 kts 18°
2026-04-29 01:29 55.70159 -111.78277 19128 ft 313 kts 18°
2026-04-29 01:29 55.72197 -111.76934 18780 ft 312 kts 18°
2026-04-29 01:29 55.74203 -111.75612 18432 ft 310 kts 18°
2026-04-29 01:30 55.76225 -111.74277 18050 ft 309 kts 18°
2026-04-29 01:30 55.78233 -111.72950 17671 ft 307 kts 18°
2026-04-29 01:30 55.80229 -111.71629 17316 ft 304 kts 18°
2026-04-29 01:30 55.82205 -111.70321 16970 ft 302 kts 18°
2026-04-29 01:31 55.84165 -111.69020 16636 ft 300 kts 18°
2026-04-29 01:31 55.86102 -111.67735 16301 ft 298 kts 18°
2026-04-29 01:31 55.86784 -111.67281 16184 ft 297 kts 18°
2026-04-29 01:31 55.88717 -111.65996 15848 ft 295 kts 18°
2026-04-29 01:32 55.89294 -111.65613 15747 ft 295 kts 18°
2026-04-29 01:32 55.90642 -111.64715 15516 ft 293 kts 18°
2026-04-29 01:32 55.90971 -111.64497 15458 ft 293 kts 18°
2026-04-29 01:33 55.92853 -111.63244 15140 ft 291 kts 18°
2026-04-29 01:33 55.94744 -111.61982 14810 ft 290 kts 18°
2026-04-29 01:33 55.96627 -111.60725 14485 ft 288 kts 18°
2026-04-29 01:33 55.98500 -111.59461 14178 ft 287 kts 19°
2026-04-29 01:34 56.00348 -111.58094 13940 ft 287 kts 20°
2026-04-29 01:34 56.02193 -111.56695 13737 ft 289 kts 20°
2026-04-29 01:34 56.04054 -111.55267 13484 ft 293 kts 21°
2026-04-29 01:34 56.04325 -111.55059 13471 ft 292 kts 21°
2026-04-29 01:35 56.05821 -111.53908 13498 ft 282 kts 21°
2026-04-29 01:35 56.07007 -111.52993 13153 ft 284 kts 20°
2026-04-29 01:35 56.09453 -111.51131 12571 ft 286 kts 20°
2026-04-29 01:35 56.11283 -111.49740 12218 ft 285 kts 20°
2026-04-29 01:36 56.13106 -111.48349 11861 ft 284 kts 22°
2026-04-29 01:36 56.14713 -111.46373 11624 ft 286 kts 39°
2026-04-29 01:36 56.15755 -111.44735 11455 ft 286 kts 37°
2026-04-29 01:36 56.15821 -111.44635 11443 ft 286 kts 37°
2026-04-29 01:37 56.17371 -111.42446 11194 ft 288 kts 34°
2026-04-29 01:37 56.18978 -111.40291 10957 ft 289 kts 34°
2026-04-29 01:37 56.20592 -111.38139 10664 ft 290 kts 34°
2026-04-29 01:37 56.22209 -111.35971 10404 ft 290 kts 34°
2026-04-29 01:38 56.23822 -111.33795 10127 ft 290 kts 34°
2026-04-29 01:38 56.25430 -111.31627 9862 ft 288 kts 33°
2026-04-29 01:38 56.27045 -111.29491 9568 ft 287 kts 34°
2026-04-29 01:38 56.28620 -111.27328 9264 ft 282 kts 35°
2026-04-29 01:39 56.30149 -111.25205 8955 ft 273 kts 35°
2026-04-29 01:39 56.31634 -111.23140 8649 ft 266 kts 35°
2026-04-29 01:39 56.33094 -111.21113 8359 ft 263 kts 35°
2026-04-29 01:39 56.34543 -111.19104 8072 ft 262 kts 35°
2026-04-29 01:40 56.35986 -111.17105 7781 ft 260 kts 35°
2026-04-29 01:40 56.37419 -111.15119 7497 ft 259 kts 35°
2026-04-29 01:40 56.38847 -111.13140 7216 ft 258 kts 35°
2026-04-29 01:40 56.40252 -111.11191 6938 ft 257 kts 35°
2026-04-29 01:41 56.41672 -111.09219 6659 ft 257 kts 35°
2026-04-29 01:41 56.43089 -111.07250 6375 ft 256 kts 35°
2026-04-29 01:41 56.44496 -111.05294 6184 ft 256 kts 35°
2026-04-29 01:41 56.45924 -111.03307 6139 ft 260 kts 35°
2026-04-29 01:42 56.47348 -111.01323 6128 ft 258 kts 35°
2026-04-29 01:42 56.48457 -110.99775 6113 ft 255 kts 35°
2026-04-29 01:42 56.48749 -110.99368 6111 ft 255 kts 35°
2026-04-29 01:43 56.49014 -110.98998 6114 ft 254 kts 35°
2026-04-29 01:43 56.49902 -110.97753 6117 ft 252 kts 35°
2026-04-29 01:43 56.49960 -110.97672 6115 ft 252 kts 35°
2026-04-29 01:43 56.51343 -110.95739 6128 ft 252 kts 35°
2026-04-29 01:44 56.52746 -110.93781 6134 ft 256 kts 35°
2026-04-29 01:44 56.54160 -110.91804 6129 ft 257 kts 35°
2026-04-29 01:44 56.55568 -110.89829 6119 ft 256 kts 37°
2026-04-29 01:44 56.56665 -110.87307 6120 ft 260 kts 65°
2026-04-29 01:45 56.57011 -110.84093 6135 ft 262 kts 87°
2026-04-29 01:45 56.57004 -110.80777 6110 ft 265 kts 89°
2026-04-29 01:45 56.56984 -110.77327 5588 ft 277 kts 89°
2026-04-29 01:45 56.57062 -110.73861 5084 ft 274 kts 75°
2026-04-29 01:46 56.57942 -110.70885 4590 ft 268 kts 44°
2026-04-29 01:46 56.59477 -110.69130 4207 ft 257 kts 14°
2026-04-29 01:46 56.61172 -110.69031 4133 ft 236 kts 344°
2026-04-29 01:46 56.62523 -110.70442 4135 ft 218 kts 315°
2026-04-29 01:47 56.63520 -110.72488 4143 ft 216 kts 310°
2026-04-29 01:47 56.64378 -110.74681 4133 ft 214 kts 301°
2026-04-29 01:47 56.64982 -110.77074 4116 ft 205 kts 282°
2026-04-29 01:47 56.65165 -110.79588 4150 ft 198 kts 279°
2026-04-29 01:48 56.65310 -110.82036 4126 ft 190 kts 275°
2026-04-29 01:48 56.65364 -110.84352 4107 ft 177 kts 272°
2026-04-29 01:48 56.65369 -110.86540 4123 ft 171 kts 271°
2026-04-29 01:48 56.65368 -110.88694 4121 ft 170 kts 271°
2026-04-29 01:49 56.65364 -110.90846 4111 ft 170 kts 271°
2026-04-29 01:49 56.65359 -110.92986 4099 ft 169 kts 271°
2026-04-29 01:49 56.65354 -110.95144 4033 ft 173 kts 271°
2026-04-29 01:49 56.65348 -110.97365 3804 ft 177 kts 271°
2026-04-29 01:50 56.65343 -110.99582 3564 ft 175 kts 271°
2026-04-29 01:50 56.65339 -111.01776 3322 ft 171 kts 271°
2026-04-29 01:50 56.65334 -111.03876 3096 ft 161 kts 270°
2026-04-29 01:50 56.65325 -111.05810 2882 ft 148 kts 269°
2026-04-29 01:51 56.65323 -111.07663 2692 ft 148 kts 269°
2026-04-29 01:51 56.65337 -111.09553 2495 ft 150 kts 276°
2026-04-29 01:51 56.65357 -111.11449 2291 ft 150 kts 266°
2026-04-29 01:51 56.65295 -111.13347 2055 ft 149 kts 271°
2026-04-29 01:52 56.65324 -111.15198 1844 ft 148 kts 274°
2026-04-29 01:52 56.65339 -111.17064 1667 ft 148 kts 268°
2026-04-29 01:52 56.65322 -111.18944 1458 ft 147 kts 268°
2026-04-29 01:52 56.65318 -111.20806 1243 ft 146 kts 269°
2026-04-29 01:53 56.65319 -111.22533 1206 ft 118 kts 271°
2026-04-29 01:53 56.65319 -111.23626 1205 ft 37 kts 270°
2026-04-29 01:53 56.65320 -111.24001 1206 ft 16 kts 270°
2026-04-29 01:53 56.65359 -111.24168 1206 ft 16 kts 348°
2026-04-29 01:54 56.65425 -111.24138 1208 ft 10 kts 58°
2026-04-29 01:54 56.65451 -111.24028 1208 ft 9 kts 61°
2026-04-29 01:54 56.65460 -111.23997 1209 ft 0 kts 61°
2026-04-29 01:55 56.65463 -111.23990 1209 ft 2 kts 61°
2026-04-29 01:56 56.65472 -111.23954 1209 ft 5 kts 66°
2026-04-29 01:56 56.65486 -111.23878 1209 ft 8 kts 78°
2026-04-29 01:56 56.65488 -111.23759 1209 ft 11 kts 90°
2026-04-29 01:56 56.65483 -111.23605 1209 ft 13 kts 93°
2026-04-29 01:57 56.65482 -111.23422 1209 ft 16 kts 89°
2026-04-29 01:57 56.65485 -111.23208 1209 ft 18 kts 87°
2026-04-29 01:57 56.65488 -111.22967 1209 ft 20 kts 89°
2026-04-29 01:57 56.65488 -111.22702 1209 ft 22 kts 90°
2026-04-29 01:58 56.65489 -111.22455 1209 ft 13 kts 85°
2026-04-29 01:58 56.65541 -111.22362 1209 ft 10 kts 10°
2026-04-29 01:58 56.65563 -111.22359 1209 ft 2 kts 360°
2026-04-29 01:58 56.65568 -111.22359 1209 ft 0 kts 358°